Regional Weather Roundup
Issued by NWS Upton, NY

Current Version | Previous Version | Text Only | Print | Product List | Glossary On
Versions: 1 2 3 4 5 6 7 8 9 10 11 12 13 14 15 16 17 18 19 20 21 22 23 24 25 26 27 28 29 30 31 32 33 34 35 36 37 38 39 40 41 42 43 44 45 46 47 48 49 50
000
ASUS41 KOKX 311504
RWROKX

REGIONAL WEATHER ROUNDUP
NATIONAL WEATHER SERVICE NEW YORK NY
1100 AM EDT FRI JUL 31 2015

NOTE: "FAIR" INDICATES FEW OR NO CLOUDS BELOW 12,000 FEET WITH NO
SIGNIFICANT WEATHER AND/OR OBSTRUCTIONS TO VISIBILITY.

NYZ071-072-176-178-NJZ106-104-311600-
NEW YORK CITY METRO AREA


CITY           SKY/WX    TMP DP  RH WIND       PRES   REMARKS
CENTRAL PARK   SUNNY     83  58  42 MISG      29.91S
LAGUARDIA APRT MOSUNNY   83  58  42 NW8       29.87S
KENNEDY INTL   MOSUNNY   85  61  44 SW6G17    29.88S
NEWARK/LIBERTY MOSUNNY   87  58  37 NW8G16    29.88S
BRNX BOT. GARD   N/A     82  59  44 N7        29.89R
TETERBORO      SUNNY     85  57  38 W8        29.87S
$$

NYZ177-179-078>081-311600-
LONG ISLAND NEW YORK

CITY           SKY/WX    TMP DP  RH WIND       PRES   REMARKS
FARMINGDALE    SUNNY     84  59  42 W7        29.88R
ISLIP          MOSUNNY   84  58  40 NW8       29.85S
SHIRLEY        SUNNY     87  57  35 NW9       29.87S
WESTHAMPTON    SUNNY     87  57  35 NW8G17    29.87S
MONTAUK POINT    N/A     82  67  60 VRB5      29.87R
$$

NYZ052-065-067-311600-
HUDSON VALLEY

CITY           SKY/WX    TMP DP  RH WIND       PRES   REMARKS
WHITE PLAINS   MOSUNNY   80  62  54 W10       29.89R
NEWBURGH       SUNNY     81  61  50 W12       29.90R
MONTGOMERY     SUNNY     82  60  47 W9G21     29.88S
POUGHKEEPSIE   SUNNY     83  60  45 NW7       29.86S
ALBANY         MOSUNNY   80  58  46 W13       29.85R
$$

NJZ001-105-106-008-010-013-015-019>022-104-311600-
NEW JERSEY

CITY           SKY/WX    TMP DP  RH WIND       PRES   REMARKS
NEWARK/LIBERTY MOSUNNY   87  58  37 NW8G16    29.88S
TETERBORO      SUNNY     85  57  38 W8        29.87S
CALDWELL       SUNNY     83  58  42 NW8       29.89S
MORRISTOWN     MOSUNNY   86  63  45 N6        29.90R
SOMERVILLE     SUNNY     85  60  42 VRB5      29.88S
SUSSEX         SUNNY     81  61  50 N7        29.90S
ANDOVER          N/A     80  62  54 W6        29.91S
TRENTON        SUNNY     82  61  48 NW7       29.90S
MILLVILLE      SUNNY     85  62  46 W12       29.92S
ATLANTIC CITY  SUNNY     84  64  50 NW8       29.91S
WRIGHTSTOWN    SUNNY     83  65  55 VRB7      29.88S
TOMS RIVER       N/A     82  63  51 W7        29.90S
BELMAR         SUNNY     82  63  51 NW5       29.90S
$$

PAZ047>061-062-071-311600-
EASTERN PENNSYLVANIA

CITY           SKY/WX    TMP DP  RH WIND       PRES   REMARKS
PHILADELPHIA   SUNNY     85  60  42 NW8       29.91S
ALLENTOWN      SUNNY     81  62  52 N3        29.92S
SCRANTON       SUNNY     79  58  48 VRB5      29.94S
$$

CTZ002-004>006-009-010-012-RIZ004-006-007-MAZ004-011-015-311600-
SOUTHERN NEW ENGLAND
 IN CT

CITY           SKY/WX    TMP DP  RH WIND       PRES   REMARKS
BRADLEY INTL   MOSUNNY   83  62  49 W12       29.83S
HARTFORD       SUNNY     83  61  47 W9        29.84R
DANBURY        SUNNY     79  63  57 SW7       29.89R
WTRBRY/OXFORD  SUNNY     79  64  61 NW3       29.91R
BRIDGEPORT     SUNNY     81  67  62 SW12      29.86S
MERIDEN        SUNNY     84  59  42 W9        29.85S
NEW HAVEN      SUNNY     76  66  71 S9        29.86R
CHESTER        FAIR      81  64  57 SW5       29.87S
GROTON         SUNNY     79  69  71 SW10      29.84S
WILLIMANTIC    SUNNY     82  62  50 W9        29.84S

 IN RI

CITY           SKY/WX    TMP DP  RH WIND       PRES   REMARKS
PROVIDENCE     MOSUNNY   83  63  50 W9        29.83S
BLOCK ISLAND     N/A     81  70  69 W12       29.87R
WESTERLY       SUNNY     79  69  71 SW9       29.85S

 IN MA

CITY           SKY/WX    TMP DP  RH WIND       PRES   REMARKS
BOSTON         MOSUNNY   84  59  42 W13       29.80S
WORCESTER      SUNNY     76  62  62 W12       29.86S
WESTFIELD      SUNNY     82  59  45 NW14      29.84R
PROVINCETOWN   SUNNY     81  64  57 W10       29.81S
NANTUCKET      SUNNY     85  66  53 W12G20    29.82S
$$

ANZ330-335-338-340-345-350-353-355-311600-
COASTAL MARINE OBSERVATIONS


STATION/POSITION TIME  SKY/WX   TEMP    WIND        PRES    VSBY  WAVE
                                AIR SEA DIR/SP/G                  HT/PER
                 (UTC)          (F)     (DEG/KT/KT) (MB)    (MI)  (FT/S)
NY HARB ENTRANCE 1350            75 76  290/ 10/ 10 1011.4          2/ 6
4S FIRE IS       NOT AVBL
20S FIRE ISLAND  1350            75 75  310/ 10/ 12 1011.3          3/ 6
GREAT SOUTH BAY  1400            78 81  300/  2/  4   N/A
23SW MTP         1450            73 74  270/  8/  8 1010.9          3/ 6
HUDSON CANYON    NOT AVBL
KINGS POINT      1400            78 70   10/  5/  5 1011.0
EXECUTION ROCKS  1400            76     270/  2/  6   N/A
CENTRAL LI SOUND NOT AVBL
EASTERN LI SOUND 1400            73 69  250/  8/  8   N/A
ROBBINS REEF     1400            79     290/  6/  8 1010.8
$$


>>>>>>>>>>>>>>>>>>>>>>>>>>>> KEY <<<<<<<<<<<<<<<<<<<<<<<<<<<
>                                                          <
>     SKY/WX - SKY CONDITION/PRESENT WEATHER               <
>     TMP    - TEMPERATURE IN FAHRENHEIT                   <
>     DP     - DEWPOINT IN FAHRENHEIT                      <
>     RH     - RELATIVE HUMIDITY IN PERCENT                <
>     WIND   - DIRECTION AND SPEED IN MPH                  <
>     PRES   - MEAN SEA LEVEL PRESSURE IN INCHES OF HG     <
>     WCI    - WIND CHILL INDEX                            <
>     VSB    - VISIBILITY IN MILES                         <
>     HX     - HEAT INDEX                                  <
>     TC     - TEMPERATURE IN CELSIUS                      <
>     VRB    - VARIABLE WIND DIRECTION                     <
>                                                          <
>>>>>>>>>>>>>>>>>>>>>>>>>>>> KEY <<<<<<<<<<<<<<<<<<<<<<<<<<<




USA.gov is the U.S. government's official web portal to all federal, state and local government web resources and services.